ANIK F3

Last updated on Sun Jun 21 2026 00:03:04 GMT+0000 (Coordinated Universal Time)

1 31102U 07009A 26171.41331935 -.00000006 00000+0 00000+0 0 9994 2 31102 1.2069 83.8169 0002606 6.0698 208.8044 1.00273057 46590
UTC large
Height (km)
Speed (km/s)
/
Latitude / Longitude
Inclination (degrees)
Orbital Period (minutes)
Azimuth
Elevation
Range (km)
Doppler Factor

Next 0 passes for location: London (51.5072 / 0.1276)

No passes found over London.
ANIK F3